Location: Elk Horn Observatory
(36.6768°N, 80.8309°W)
Time: 23:14:36
(UTC-04:00)

Tiangong 2 - Pass Details

Date: 21 February 2019
Orbit: 379 x 390 km, 42.8° (Epoch: 20 March)

Event Time Altitude Azimuth Distance (km) Brightness Sun altitude
Rises 20:01:02 0° 276° (W) 2,246 6.4 -23.0°
Reaches altitude 10° 20:04:25 10° 236° (WSW) 1,386 4.5 -23.7°
Maximum altitude 20:05:16 11° 221° (SW) 1,336 4.2 -23.8°
Enters shadow 20:05:59 10° 207° (SSW) 1,368 4.1 -24.0°
